SCP
0 0 0 0 0 0 0 0 0 0 0 0 0 0 0 0 0 0 0 0 0 0 0 0 0 0 0 0 0 0 0 0 0 0 0 0 0 0
0 0 0 0 0 0 0 0 0 0 0 0 0 0 0 0 0 0 0 0 0 0 0 0 0 0 0 0 0 0 0 0 0 0 0 0 0 0
0 0 0 0 0 0 0 0 0 0 0 0 0 0 0 0 0 0 0 0 0 0 0 0 0 0 0 0 0 0 0 0 0 0 0 0 0 0
0 0 0 0 0 0 0 0 0 0 0 0 0 0 0 0 0 0 0 0 0 0 0 0 0 0 0 0 0 0 0 0 0 0 0 0 0 0
0 0 0 0 0 0 0 0 0 0 0 0 0 0 0 0 0 0 0 0 0 0 0 0 0 0 0 0 0 0 0 0 0 0 0 0 0 0
0 0 0 0 0 0 0 0 0 0 0 0 0 0 0 0 0 0 0 0 0 0 0 0 0 0 0 0 0 0 0 0 0 0 0 0 0 0
0 0 0 0 0 0 0 0 0 0 0 0 0 0 0 0 0 0 0 0 0 0 0 0 0 0 0 0 0 0 0 0 0 0 0 0 0 0
0 0 0 0 0 0 0 0 0 0 0 0 0 0 0 0 0 0 0 0 0 0 0 0 0 0 0 0 0 0 0 0 0 0 0 0 0 0
0 0 0 0 0 0 0 0 0 0 0 0 0 0 0 0 0 0 0 0 0 0 0 0 0 0 0 0 0 0 0 0 0 0 0 0 0 0
0 0 0 0 0 0 0 0 0 0 0 0 0 0 0 0 0 0 0 0 0 0 0 0 0 0 0 0 0 0 0 0 0 0 0 0 0 0
0 0 0 0 0 0 0 0 0 0 0 0 0 0 0 0 0 0 0 0 0 0 0 0 0 0 0 0 0 0 0 0 0 0 0 0 0 0
0 0 0 0 0 0 0 0 0 0 0 0 0 0 0 0 0 0 0 0 0 0 0 0 0 0 0 0 0 0 0 0 0 0 0 0 0 0
0 0 0 0 0 0 0 0 0 0 0 0 0 0 0 0 0 0 0 0 0 0 0 0 0 0 0 0 0 0 0 0 0 0 0 0 0 0
0 0 0 0 0 0 0 0 0 0 0 0 0 0 0 0 0 0 0 0 0 0 0 0 0 0 0 0 0 0 0 0 0 0 0 0 0 0
0 0 0 0 0 0 0 0 0 0 0 0 0 0 0 0 0 0 0 0 0 0 0 0 0 0 0 0 0 0 0 0 0 0 0 0 0 0
0 0 0 0 0 0 0 0 0 0 0 0 0 0 0 0 0 0 0 0 0 0 0 0 0 0 0 0 0 0 0 0 0 0 0 0 0 0
0 0 0 0 0 0 0 0 0 0 0 0 0 0 0 0 0 0 0 0 0 0 0 0 0 0 0 0 0 0 0 0 0 0 0 0 0 0
0 0 0 0 0 0 0 0 0 0 0 0 0 0 0 0 0 0 0 0 0 0 0 0 0 0 0 0 0 0 0 0 0 0 0 0 0 0
0 0 0 0 0 0 0 0 0 0 0 0 0 0 0 0 0 0 0 0 0 0 0 0 0 0 0 0 0 0 0 0 0 0 0 0 0 0
0 0 0 0 0 0 0 0 0 0 0 0 0 0 0 0 0 0 0 0 0 0 0 0 0 0 0 0 0 0 0 0 0 0 0 0 0 0
0 0 0 0 0 0 0 0 0 0 0 0 0 0 0 0 0 0 0 0 0 0 0 0 0 0 0 0 -0 0 0 0 0 0 0 0 0 0
0 0 0 0 0 0 0 0 0 0 0 0 0 0 0 0 0 0 0 0 0 0 0 0 0 0 0 0 0 0 0 0 0 0 0 0 0 0
0 0 0 0 0 0 0 0 0 0 0 0 0 0 0 0 0 0 0 0 0 0 0 0 0 0 0 0 0 0 0 0 0 0 0 0 0 0
Wind_Speed_500mb
78 71 73 61 74 78 66 70 63 48 51 44 42 42 43 46 42 42 41 38 40 41 44 47 48 49 52 56 60 63 66 68 72 72 72 69 72 71
78 71 69 67 66 69 81 62 61 54 56 40 44 47 44 43 40 42 45 43 42 44 46 49 50 49 51 54 58 59 64 68 71 74 75 76 74 75
78 71 68 73 63 71 75 59 58 51 55 54 49 44 43 41 45 48 48 50 50 50 52 54 56 58 61 65 69 71 72 74 78 81 82 81 77 77
77 74 67 63 71 70 62 54 59 51 49 51 47 45 43 45 46 50 54 52 55 56 59 61 64 68 70 70 73 75 79 83 87 89 88 87 85 77
66 68 62 62 77 88 64 51 46 47 52 52 48 44 44 45 47 51 54 57 60 62 65 69 69 68 66 66 69 70 72 76 84 87 88 83 80 80
63 56 63 54 56 59 54 44 46 51 51 45 43 45 43 48 49 51 56 61 67 66 64 65 62 59 57 58 61 62 64 66 69 71 77 81 74 71
65 63 60 56 51 58 50 43 45 45 41 43 44 41 42 43 49 56 63 64 65 61 58 54 54 55 60 60 58 60 61 63 65 69 75 78 78 69
65 64 53 49 56 47 46 45 42 41 41 40 37 39 47 51 53 56 57 53 39 46 50 57 59 60 60 55 56 58 59 62 63 68 78 73 69 62
51 49 48 44 38 39 34 32 33 33 32 33 39 45 49 50 51 51 51 50 45 45 50 62 56 61 54 54 56 53 53 59 64 69 71 67 65 72
37 39 36 33 29 26 26 26 28 32 37 41 41 43 45 45 46 48 49 52 50 48 39 53 46 49 50 49 56 54 49 54 58 59 58 55 50 40
27 25 22 22 22 23 23 25 31 36 37 39 41 42 43 42 44 46 44 42 49 39 41 48 45 44 51 54 48 43 39 50 47 47 48 44 43 41
20 18 20 19 18 21 24 26 27 32 34 36 37 38 40 40 41 41 45 52 50 40 17 30 34 34 52 42 34 36 45 45 43 45 43 45 46 43
17 17 15 15 16 24 29 31 33 37 43 42 41 41 41 41 42 45 49 51 53 49 44 47 43 45 46 63 62 49 45 41 43 34 30 44 48 42
10 15 20 26 32 38 44 43 39 38 39 45 47 46 49 45 44 45 49 52 53 60 61 59 67 50 53 60 62 50 44 39 34 27 22 28 30 34
26 30 32 35 38 36 37 39 45 45 44 44 44 42 45 50 53 56 57 57 60 63 60 54 56 57 52 61 63 58 49 38 34 36 29 29 30 33
32 35 37 36 34 34 34 36 38 41 43 44 45 48 52 49 47 47 51 52 56 55 46 44 41 43 53 56 56 62 58 40 31 41 36 30 30 29
30 31 30 31 30 31 32 36 39 41 40 38 39 36 38 38 39 38 39 41 43 48 46 38 37 42 53 60 64 64 57 47 42 33 35 31 29 28
27 26 24 29 29 27 25 25 28 32 33 35 37 39 40 41 42 39 38 37 42 45 48 43 41 41 41 44 46 57 58 53 52 41 33 30 29 27
23 23 24 26 27 26 27 29 32 32 36 37 40 41 41 42 43 40 38 38 41 44 45 44 40 34 39 43 41 32 54 52 50 44 35 32 28 23
22 21 22 25 26 26 29 32 35 39 42 42 42 42 42 42 41 38 38 40 41 44 47 40 35 34 36 41 46 37 43 54 59 42 34 29 27 28
25 23 24 25 28 32 37 40 43 44 47 45 42 41 39 38 39 37 39 40 42 41 45 43 40 45 42 40 44 44 36 60 54 40 32 29 26 22
29 30 31 34 38 38 39 39 41 42 42 43 42 40 38 35 36 39 37 39 39 41 45 46 44 38 35 37 41 40 24 52 49 40 33 30 25 19
40 42 45 47 48 47 44 41 42 45 45 44 42 38 36 37 35 35 36 37 38 41 43 46 42 38 37 38 37 31 31 57 52 44 36 35 28 24
Wind_Direction_500mb
272 271 272 271 286 267 259 254 264 256 258 260 257 262 257 254 272 267 265 266 265 264 264 265 268 268 266 266 266 266 266 267 267 267 267 269 270 267
274 266 261 271 287 267 270 250 256 256 256 259 260 256 249 257 263 257 255 261 261 264 265 269 272 271 269 270 271 269 269 269 268 268 269 269 270 267
282 254 260 272 252 255 266 260 244 247 250 257 253 250 253 259 264 255 256 260 264 265 270 273 274 275 275 275 274 272 269 267 265 266 268 270 269 267
283 254 270 257 256 265 252 245 243 249 250 249 252 254 258 258 255 261 263 266 266 269 273 275 277 279 279 278 276 272 270 268 266 266 266 269 266 268
272 270 263 264 266 259 242 237 242 249 244 247 253 258 259 260 258 266 265 267 270 275 280 282 282 281 280 280 279 280 281 278 275 271 267 261 267 264
264 262 271 257 249 244 235 236 245 240 244 251 258 260 260 266 269 269 270 273 277 280 283 281 283 282 283 285 286 288 287 284 281 276 267 263 259 266
266 265 256 246 234 243 234 234 240 241 246 256 258 257 268 269 272 275 279 282 283 287 287 285 288 288 290 289 290 288 285 282 282 278 271 265 266 266
260 252 233 235 231 221 231 239 237 239 243 247 258 269 272 275 277 279 282 287 291 290 290 290 294 293 291 291 289 285 281 281 283 281 274 265 260 252
237 231 230 225 222 227 230 231 234 247 261 275 275 271 275 278 279 283 285 286 282 287 293 294 298 295 296 293 287 284 285 287 287 281 275 265 259 246
224 219 217 219 221 232 242 253 278 287 280 274 272 276 278 281 284 285 287 288 289 293 292 289 297 295 295 290 290 290 290 295 293 278 269 258 251 236
205 208 219 235 251 269 287 294 285 276 277 282 284 285 286 288 288 287 291 288 293 290 284 281 288 291 294 293 292 293 294 306 290 280 265 248 242 231
212 229 248 265 282 298 297 284 282 283 287 289 291 291 289 288 286 285 289 291 292 300 284 282 283 292 299 294 285 294 294 300 291 281 259 239 229 225
238 252 269 290 302 299 303 300 298 297 294 289 287 289 292 291 290 290 285 284 284 276 276 276 284 283 273 283 291 290 287 293 296 279 258 241 233 229
289 306 313 310 304 299 298 302 296 288 289 291 291 290 292 293 292 290 290 287 284 284 285 282 282 281 280 279 281 286 277 284 280 262 237 230 227 235
308 306 306 303 300 297 292 287 289 290 291 293 295 295 293 293 293 292 290 288 283 280 280 279 275 279 273 273 278 280 275 266 261 243 230 227 237 250
312 308 312 317 314 302 299 298 296 296 296 297 298 298 300 300 298 295 291 292 291 291 291 286 280 273 274 269 271 273 264 244 245 230 230 238 247 242
325 322 319 318 317 313 307 302 299 300 301 302 302 303 301 299 298 299 296 297 292 296 299 298 291 280 274 275 270 267 252 240 229 223 229 236 236 237
324 323 323 321 318 313 310 305 306 307 307 307 306 305 301 300 300 298 297 296 294 298 301 304 304 300 292 279 265 263 240 233 224 220 225 229 237 243
336 332 325 323 320 316 309 308 309 308 308 310 309 306 302 301 301 299 299 299 298 301 302 304 303 298 297 291 293 250 238 233 216 210 216 225 232 238
347 344 336 328 323 316 313 310 309 308 309 308 307 305 302 301 299 297 298 300 300 302 304 305 298 294 289 287 288 257 217 230 223 206 213 220 221 225
348 341 334 327 320 316 312 309 308 308 307 307 307 306 303 299 296 294 297 298 300 305 303 303 299 295 294 295 285 277 244 213 211 203 205 205 212 220
335 331 325 321 318 318 315 312 309 309 307 306 305 304 302 299 296 298 298 299 302 303 302 303 306 305 295 289 284 276 263 200 201 201 212 205 204 216
332 327 324 322 321 319 316 311 309 309 310 308 307 305 304 302 302 301 299 298 301 304 307 308 308 306 298 296 290 264 229 194 185 191 199 204 218 222
Wind_Speed_850mb
78 71 73 61 74 78 66 70 63 48 51 44 42 42 43 46 42 42 41 38 40 41 44 47 48 49 52 56 60 63 66 68 72 72 72 69 72 71
78 71 69 67 66 69 81 62 61 54 56 40 44 47 44 43 40 42 45 43 42 44 46 49 50 49 51 54 58 59 64 68 71 74 75 76 74 75
78 71 68 73 63 71 75 59 58 51 55 54 49 44 43 41 45 48 48 50 50 50 52 54 56 58 61 65 69 71 72 74 78 81 82 81 77 77
77 74 67 63 71 70 62 54 59 51 49 51 47 45 43 45 46 50 54 52 55 56 59 61 64 68 70 70 73 75 79 83 87 89 88 87 85 77
66 68 62 62 77 88 64 51 46 47 52 52 48 44 44 45 47 51 54 57 60 62 65 69 69 68 66 66 69 70 72 76 84 87 88 83 80 80
63 56 63 54 56 59 54 44 46 51 51 45 43 45 43 48 49 51 56 61 67 66 64 65 62 59 57 58 61 62 64 66 69 71 77 81 74 71
65 63 60 56 51 58 50 43 45 45 41 43 44 41 42 43 49 56 63 64 65 61 58 54 54 55 60 60 58 60 61 63 65 69 75 78 78 69
65 64 53 49 56 47 46 45 42 41 41 40 37 39 47 51 53 56 57 53 39 46 50 57 59 60 60 55 56 58 59 62 63 68 78 73 69 62
51 49 48 44 38 39 34 32 33 33 32 33 39 45 49 50 51 51 51 50 45 45 50 62 56 61 54 54 56 53 53 59 64 69 71 67 65 72
37 39 36 33 29 26 26 26 28 32 37 41 41 43 45 45 46 48 49 52 50 48 39 53 46 49 50 49 56 54 49 54 58 59 58 55 50 40
27 25 22 22 22 23 23 25 31 36 37 39 41 42 43 42 44 46 44 42 49 39 41 48 45 44 51 54 48 43 39 50 47 47 48 44 43 41
20 18 20 19 18 21 24 26 27 32 34 36 37 38 40 40 41 41 45 52 50 40 17 30 34 34 52 42 34 36 45 45 43 45 43 45 46 43
17 17 15 15 16 24 29 31 33 37 43 42 41 41 41 41 42 45 49 51 53 49 44 47 43 45 46 63 62 49 45 41 43 34 30 44 48 42
10 15 20 26 32 38 44 43 39 38 39 45 47 46 49 45 44 45 49 52 53 60 61 59 67 50 53 60 62 50 44 39 34 27 22 28 30 34
26 30 32 35 38 36 37 39 45 45 44 44 44 42 45 50 53 56 57 57 60 63 60 54 56 57 52 61 63 58 49 38 34 36 29 29 30 33
32 35 37 36 34 34 34 36 38 41 43 44 45 48 52 49 47 47 51 52 56 55 46 44 41 43 53 56 56 62 58 40 31 41 36 30 30 29
30 31 30 31 30 31 32 36 39 41 40 38 39 36 38 38 39 38 39 41 43 48 46 38 37 42 53 60 64 64 57 47 42 33 35 31 29 28
27 26 24 29 29 27 25 25 28 32 33 35 37 39 40 41 42 39 38 37 42 45 48 43 41 41 41 44 46 57 58 53 52 41 33 30 29 27
23 23 24 26 27 26 27 29 32 32 36 37 40 41 41 42 43 40 38 38 41 44 45 44 40 34 39 43 41 32 54 52 50 44 35 32 28 23
22 21 22 25 26 26 29 32 35 39 42 42 42 42 42 42 41 38 38 40 41 44 47 40 35 34 36 41 46 37 43 54 59 42 34 29 27 28
25 23 24 25 28 32 37 40 43 44 47 45 42 41 39 38 39 37 39 40 42 41 45 43 40 45 42 40 44 44 36 60 54 40 32 29 26 22
29 30 31 34 38 38 39 39 41 42 42 43 42 40 38 35 36 39 37 39 39 41 45 46 44 38 35 37 41 40 24 52 49 40 33 30 25 19
40 42 45 47 48 47 44 41 42 45 45 44 42 38 36 37 35 35 36 37 38 41 43 46 42 38 37 38 37 31 31 57 52 44 36 35 28 24
Wind_Direction_850mb
272 271 272 271 286 267 259 254 264 256 258 260 257 262 257 254 272 267 265 266 265 264 264 265 268 268 266 266 266 266 266 267 267 267 267 269 270 267
274 266 261 271 287 267 270 250 256 256 256 259 260 256 249 257 263 257 255 261 261 264 265 269 272 271 269 270 271 269 269 269 268 268 269 269 270 267
282 254 260 272 252 255 266 260 244 247 250 257 253 250 253 259 264 255 256 260 264 265 270 273 274 275 275 275 274 272 269 267 265 266 268 270 269 267
283 254 270 257 256 265 252 245 243 249 250 249 252 254 258 258 255 261 263 266 266 269 273 275 277 279 279 278 276 272 270 268 266 266 266 269 266 268
272 270 263 264 266 259 242 237 242 249 244 247 253 258 259 260 258 266 265 267 270 275 280 282 282 281 280 280 279 280 281 278 275 271 267 261 267 264
264 262 271 257 249 244 235 236 245 240 244 251 258 260 260 266 269 269 270 273 277 280 283 281 283 282 283 285 286 288 287 284 281 276 267 263 259 266
266 265 256 246 234 243 234 234 240 241 246 256 258 257 268 269 272 275 279 282 283 287 287 285 288 288 290 289 290 288 285 282 282 278 271 265 266 266
260 252 233 235 231 221 231 239 237 239 243 247 258 269 272 275 277 279 282 287 291 290 290 290 294 293 291 291 289 285 281 281 283 281 274 265 260 252
237 231 230 225 222 227 230 231 234 247 261 275 275 271 275 278 279 283 285 286 282 287 293 294 298 295 296 293 287 284 285 287 287 281 275 265 259 246
224 219 217 219 221 232 242 253 278 287 280 274 272 276 278 281 284 285 287 288 289 293 292 289 297 295 295 290 290 290 290 295 293 278 269 258 251 236
205 208 219 235 251 269 287 294 285 276 277 282 284 285 286 288 288 287 291 288 293 290 284 281 288 291 294 293 292 293 294 306 290 280 265 248 242 231
212 229 248 265 282 298 297 284 282 283 287 289 291 291 289 288 286 285 289 291 292 300 284 282 283 292 299 294 285 294 294 300 291 281 259 239 229 225
238 252 269 290 302 299 303 300 298 297 294 289 287 289 292 291 290 290 285 284 284 276 276 276 284 283 273 283 291 290 287 293 296 279 258 241 233 229
289 306 313 310 304 299 298 302 296 288 289 291 291 290 292 293 292 290 290 287 284 284 285 282 282 281 280 279 281 286 277 284 280 262 237 230 227 235
308 306 306 303 300 297 292 287 289 290 291 293 295 295 293 293 293 292 290 288 283 280 280 279 275 279 273 273 278 280 275 266 261 243 230 227 237 250
312 308 312 317 314 302 299 298 296 296 296 297 298 298 300 300 298 295 291 292 291 291 291 286 280 273 274 269 271 273 264 244 245 230 230 238 247 242
325 322 319 318 317 313 307 302 299 300 301 302 302 303 301 299 298 299 296 297 292 296 299 298 291 280 274 275 270 267 252 240 229 223 229 236 236 237
324 323 323 321 318 313 310 305 306 307 307 307 306 305 301 300 300 298 297 296 294 298 301 304 304 300 292 279 265 263 240 233 224 220 225 229 237 243
336 332 325 323 320 316 309 308 309 308 308 310 309 306 302 301 301 299 299 299 298 301 302 304 303 298 297 291 293 250 238 233 216 210 216 225 232 238
347 344 336 328 323 316 313 310 309 308 309 308 307 305 302 301 299 297 298 300 300 302 304 305 298 294 289 287 288 257 217 230 223 206 213 220 221 225
348 341 334 327 320 316 312 309 308 308 307 307 307 306 303 299 296 294 297 298 300 305 303 303 299 295 294 295 285 277 244 213 211 203 205 205 212 220
335 331 325 321 318 318 315 312 309 309 307 306 305 304 302 299 296 298 298 299 302 303 302 303 306 305 295 289 284 276 263 200 201 201 212 205 204 216
332 327 324 322 321 319 316 311 309 309 310 308 307 305 304 302 302 301 299 298 301 304 307 308 308 306 298 296 290 264 229 194 185 191 199 204 218 222